Location: Huntsville
(41.2590°N, 111.7678°W)
Time: 19:58:26
(UTC+00:00)

Explorer 7 - Pass Details

Date: 16 June 2021
Orbit: 484 x 676 km, 50.3° (Epoch: 30 July)

Event Time Altitude Azimuth Distance (km) Brightness Sun altitude
Rises 04:17:12 0° 198° (SSW) 3,009 10.3 -11.7°
Reaches altitude 10° 04:19:58 10° 183° (S) 2,100 9.4 -12.1°
Maximum altitude 04:23:45 23° 132° (SE) 1,421 8.3 -12.6°
Drops below altitude 10° 04:27:30 10° 81° (E) 2,080 9.4 -13.1°
Sets 04:30:13 0° 67° (ENE) 2,973 10.4 -13.4°
